MDT,Max TemperatureF,Mean TemperatureF,Min TemperatureF,Max Dew PointF,MeanDew PointF,Min DewpointF,Max Humidity, Mean Humidity, Min Humidity, Max Sea Level PressureIn, Mean Sea Level PressureIn, Min Sea Level PressureIn, Max VisibilityMiles, Mean VisibilityMiles, Min VisibilityMiles, Max Wind SpeedMPH, Mean Wind SpeedMPH, Max Gust SpeedMPH,PrecipitationIn, CloudCover, Events, WindDirDegrees
2013-5-1,33,24,14,30,19,9,87,80,69,30.38,30.17,30.03,10,3,0,29,14,29,0.00,8,Fog-Snow,254
2013-5-2,26,19,12,10,8,3,79,65,43,30.51,30.47,30.38,10,6,0,26,16,34,0.00,4,Snow,280
2013-5-3,41,30,19,18,5,-2,58,37,19,30.47,30.35,30.23,10,10,10,24,15,25,0.17,1,,263
2013-5-4,37,32,28,25,17,9,70,52,36,30.28,30.22,30.18,10,10,7,31,18,36,0.00,3,,175
2013-5-5,41,36,30,25,18,12,69,49,31,30.30,30.27,30.24,10,10,10,32,23,33,0.00,4,,184
2013-5-6,42,37,32,30,26,21,87,72,45,30.28,30.22,30.17,10,7,0,25,14,29,0.01,6,Snow-Thunderstorm,159
2013-5-7,39,34,30,30,27,23,93,81,56,30.24,30.21,30.19,10,4,0,20,11,26,0.15,8,Fog-Snow-Thunderstorm,243
2013-5-8,37,34,30,30,26,19,93,77,60,30.23,30.19,30.17,10,5,0,21,8,24,0.22,7,Fog-Snow-Thunderstorm,226
2013-5-9,37,34,30,28,26,21,87,78,64,30.38,30.29,30.20,10,6,0,17,7,29,0.45,6,Snow-Thunderstorm,288
2013-5-10,41,34,28,28,23,18,80,64,42,30.56,30.44,30.36,10,10,5,18,8,28,0.00,3,Snow-Thunderstorm,287
2013-5-11,44,37,30,28,22,14,75,58,29,30.60,30.58,30.55,10,9,0,38,9,53,0.00,4,Snow,262
2013-5-12,50,42,33,30,24,19,87,54,32,30.62,30.58,30.54,10,10,0,30,19,37,0.04,4,Snow,275
2013-5-13,55,48,41,32,26,21,61,47,26,30.67,30.63,30.57,10,10,10,22,13,23,0.00,1,Rain,241
2013-5-14,53,47,41,34,28,19,76,51,26,30.57,30.50,30.44,10,10,7,30,10,29,0.02,4,Rain-Thunderstorm,235
2013-5-15,53,45,37,36,31,27,87,62,41,30.45,30.39,30.33,10,9,0,22,11,29,0.11,4,Rain-Snow-Thunderstorm,246
2013-5-16,51,43,35,34,25,21,87,51,30,30.33,30.31,30.27,10,10,0,24,13,36,0.02,3,Fog-Rain-Snow,242
2013-5-17,53,47,41,21,12,1,39,25,13,30.33,30.31,30.27,10,10,10,25,14,32,0.00,1,,202
2013-5-18,42,37,32,30,20,10,87,53,29,30.29,30.23,30.17,10,8,0,24,14,30,0.00,4,Snow-Thunderstorm,230
2013-5-19,33,30,28,30,26,23,87,83,70,30.15,30.12,30.09,10,4,0,31,17,38,0.16,8,Fog-Snow-Thunderstorm,274
2013-5-20,35,32,28,30,27,23,93,84,75,30.26,30.17,30.10,10,3,0,37,22,40,0.15,8,Fog-Snow-Thunderstorm,275
2013-5-21,41,34,26,28,25,21,86,70,49,30.27,30.24,30.20,10,9,3,37,23,46,0.04,7,Snow,273
2013-5-22,53,44,35,28,21,12,65,44,21,30.33,30.26,30.21,10,10,10,28,12,40,0.00,4,Rain-Thunderstorm,191
2013-5-23,53,45,37,30,19,7,75,38,15,30.35,30.31,30.29,10,10,10,31,17,39,0.00,2,,158
2013-5-24,53,47,41,18,11,1,36,25,12,30.45,30.39,30.31,10,10,10,28,18,30,0.00,0,,207
2013-5-25,55,48,41,10,5,-9,27,18,8,30.45,30.42,30.39,10,10,10,26,15,34,0.00,0,,200
2013-5-26,55,50,44,14,7,1,27,19,11,30.42,30.38,30.33,10,10,10,20,11,26,0.00,1,Thunderstorm,219
2013-5-27,53,47,41,18,9,0,34,24,18,30.36,30.28,30.23,10,10,10,22,14,32,0.00,2,,244
2013-5-28,51,46,41,23,14,9,45,30,19,30.23,30.12,30.02,10,10,10,32,15,40,0.00,2,Thunderstorm,190
2013-5-29,41,36,30,30,27,19,87,75,42,30.03,29.97,29.93,10,6,0,29,13,38,0.14,6,Snow-Thunderstorm,250
2013-5-30,37,32,28,28,25,18,87,76,45,30.18,30.05,29.96,10,3,0,39,25,52,0.00,8,Snow,269
2013-5-31,41,34,28,27,15,7,80,48,26,30.36,30.22,30.12,10,6,1,45,26,58,0.01,5,Snow,272